Savannah Hunter, GA

2:47 AM EST on February 21, 2018 (GMT -0500)
Hunter Army Air Field

Weather History for KSVN - January, 2013

Change the Weather History Date:

Tuesday, January 29, 2013

  Actual Average Record
Temperature  
Mean Temperature 62 °F -  
Max Temperature 75 °F 59 °F 78 °F (2002)
Min Temperature 49 °F 39 °F 23 °F (2004)
Degree Days  
Heating Degree Days 3    
Growing Degree Days 12 (Base 50)    
Moisture  
Dew Point 54 °F    
Average Humidity 97    
Maximum Humidity 100    
Minimum Humidity 67    
Precipitation  
Precipitation 0.00 in - - ()
Sea Level Pressure  
Sea Level Pressure 30.24 in    
Wind  
Wind Speed 1 mph (SE)    
Max Wind Speed 13 mph    
Max Gust Speed 16 mph    
Visibility 4 miles    
Events Fog    
Averages and records for this station are not official NWS values.
T = Trace of Precipitation, MM = Missing Value Source: NWS Daily Summary

Daily Weather History Graph

Daily Weather History Graph

Search for Another Location

Airport or City:

Trip Planner

Search our weather history database for the weather conditions in past years. The results will help you decide how hot, cold, wet, or windy it might be!

Date:

Astronomy

Jan. 29, 2013 Rise Set
Actual Time 7:19 AM EST 5:56 PM EST
Civil Twilight 6:54 AM EST 6:21 PM EST
Nautical Twilight 6:24 AM EST 6:51 PM EST
Astronomical Twilight 5:55 AM EST 7:20 PM EST
Moon 8:36 PM EST (1/29) 8:28 AM EST (1/29)
Length of Visible Light 11h 27m
Length of Day
10h 36m
Waning Gibbous, 94% of the Moon is Illuminated
Jan 29
Waning Gibbous
Feb 3
Last Quarter
Feb 10
New
Feb 17
First Quarter
Feb 25
Full

Hourly Weather History & Observations

Time (EST) Temp. Dew Point Humidity Pressure Visibility Wind Dir Wind Speed Gust Speed Precip Events Conditions
12:08 AM 51.8 °F 50.0 °F 94% 30.27 in 6.0 mi Calm Calm - N/A   Clear
12:21 AM 51.8 °F 51.8 °F 100% 30.27 in 3.0 mi Calm Calm - N/A   Clear
12:24 AM 51.8 °F 51.8 °F 100% 30.27 in 3.0 mi Calm Calm - N/A   Clear
12:55 AM 51.6 °F 50.9 °F 97% 30.27 in 10.0 mi Calm Calm - N/A   Clear
1:12 AM 51.8 °F 50.0 °F 94% 30.27 in 6.0 mi Calm Calm - N/A   Clear
1:17 AM 50.0 °F 50.0 °F 100% 30.27 in 6.0 mi Calm Calm - N/A   Clear
1:55 AM 50.7 °F 49.6 °F 96% 30.26 in 10.0 mi Calm Calm - N/A   Clear
2:09 AM 51.8 °F 50.0 °F 94% 30.25 in 2.0 mi Calm Calm - N/A   Clear
2:10 AM 51.8 °F 50.0 °F 94% 30.25 in 1.5 mi Calm Calm - N/A   Clear
2:11 AM 51.8 °F 50.0 °F 94% 30.25 in 1.0 mi Calm Calm - N/A   Clear
2:13 AM 51.8 °F 50.0 °F 94% 30.25 in 0.8 mi Calm Calm - N/A   Clear
2:15 AM 51.8 °F 50.0 °F 94% 30.25 in 0.5 mi Calm Calm - N/A Fog Fog
2:16 AM 51.8 °F 50.0 °F 94% 30.25 in 0.5 mi Calm Calm - N/A Fog Fog
2:28 AM 50.0 °F 50.0 °F 100% 30.25 in 0.5 mi Calm Calm - N/A Fog Fog
2:30 AM 51.8 °F 50.0 °F 94% 30.25 in 0.5 mi Calm Calm - N/A Fog Fog
2:31 AM 51.8 °F 50.0 °F 94% 30.25 in 0.8 mi Calm Calm - N/A   Clear
2:33 AM 51.8 °F 50.0 °F 94% 30.25 in 1.0 mi Calm Calm - N/A   Clear
2:34 AM 50.0 °F 50.0 °F 100% 30.24 in 5.0 mi Calm Calm - N/A   Clear
2:35 AM 50.0 °F 50.0 °F 100% 30.25 in 1.2 mi Calm Calm - N/A   Clear
2:37 AM 50.0 °F 50.0 °F 100% 30.25 in 1.5 mi Calm Calm - N/A   Clear
2:38 AM 50.0 °F 50.0 °F 100% 30.25 in 2.0 mi Calm Calm - N/A   Clear
2:40 AM 50.0 °F 50.0 °F 100% 30.25 in 3.0 mi Calm Calm - N/A   Clear
2:42 AM 50.0 °F 50.0 °F 100% 30.25 in 3.0 mi Calm Calm - N/A   Clear
2:47 AM 50.0 °F 50.0 °F 100% 30.25 in 5.0 mi Calm Calm - N/A   Clear
2:55 AM 50.0 °F 49.5 °F 98% 30.25 in 10.0 mi Calm Calm - N/A   Clear
3:30 AM 50.0 °F 50.0 °F 100% 30.25 in 3.0 mi Calm Calm - N/A   Clear
3:34 AM 50.0 °F 50.0 °F 100% 30.25 in 2.5 mi Calm Calm - N/A   Clear
3:35 AM 50.0 °F 50.0 °F 100% 30.25 in 2.0 mi Calm Calm - N/A   Clear
3:38 AM 50.0 °F 50.0 °F 100% 30.25 in 2.0 mi Calm Calm - N/A   Clear
3:40 AM 50.0 °F 50.0 °F 100% 30.25 in 2.5 mi Calm Calm - N/A   Clear
3:42 AM 50.0 °F 50.0 °F 100% 30.25 in 3.0 mi Calm Calm - N/A   Clear
3:55 AM 50.2 °F 49.5 °F 97% 30.25 in 9.0 mi Calm Calm - N/A   Clear
3:57 AM 50.0 °F 50.0 °F 100% 30.25 in 9.0 mi Calm Calm - N/A   Clear
4:55 AM 49.8 °F 48.9 °F 97% 30.24 in 10.0 mi Calm Calm - N/A   Clear
5:24 AM 50.0 °F 48.2 °F 94% 30.24 in 2.0 mi Calm Calm - N/A   Clear
5:25 AM 50.0 °F 48.2 °F 94% 30.25 in 1.5 mi Calm Calm - N/A   Clear
5:26 AM 50.0 °F 48.2 °F 94% 30.24 in 1.0 mi Calm Calm - N/A   Clear
5:27 AM 50.0 °F 48.2 °F 94% 30.25 in 0.8 mi Calm Calm - N/A   Clear
5:28 AM 50.0 °F 48.2 °F 94% 30.25 in 0.8 mi Calm Calm - N/A   Clear
5:29 AM 50.0 °F 48.2 °F 94% 30.25 in 0.5 mi Calm Calm - N/A Fog Fog
5:32 AM 50.0 °F 48.2 °F 94% 30.25 in 0.5 mi Calm Calm - N/A Fog Fog
5:36 AM 50.0 °F 48.2 °F 94% 30.24 in 0.2 mi Calm Calm - N/A Fog Fog
5:43 AM 50.0 °F 48.2 °F 94% 30.25 in 0.5 mi Calm Calm - N/A Fog Fog
5:48 AM 50.0 °F 50.0 °F 100% 30.25 in 0.5 mi Calm Calm - N/A Fog Fog
5:50 AM 50.0 °F 50.0 °F 100% 30.25 in 0.5 mi Calm Calm - N/A Fog Fog
5:51 AM 50.0 °F 50.0 °F 100% 30.25 in 0.8 mi Calm Calm - N/A   Clear
5:53 AM 50.0 °F 50.0 °F 100% 30.25 in 1.0 mi Calm Calm - N/A   Clear
5:55 AM 50.2 °F 50.0 °F 99% 30.25 in 1.2 mi Calm Calm - N/A   Clear
5:56 AM 50.0 °F 50.0 °F 100% 30.25 in 1.5 mi Calm Calm - N/A   Clear
5:57 AM 50.0 °F 50.0 °F 100% 30.25 in 1.8 mi Calm Calm - N/A   Clear
5:58 AM 50.0 °F 50.0 °F 100% 30.25 in 2.0 mi Calm Calm - N/A   Clear
6:02 AM 50.0 °F 50.0 °F 100% 30.25 in 3.0 mi Calm Calm - N/A   Clear
6:19 AM 50.0 °F 50.0 °F 100% 30.25 in 4.0 mi Calm Calm - N/A   Clear
6:20 AM 50.0 °F 50.0 °F 100% 30.25 in 4.0 mi Calm Calm - N/A   Clear
6:23 AM 50.0 °F 50.0 °F 100% 30.25 in 2.5 mi Calm Calm - N/A   Clear
6:26 AM 50.0 °F 50.0 °F 100% 30.25 in 1.8 mi Calm Calm - N/A   Clear
6:27 AM 50.0 °F 50.0 °F 100% 30.25 in 1.2 mi Calm Calm - N/A   Clear
6:29 AM 50.0 °F 50.0 °F 100% 30.25 in 1.0 mi Calm Calm - N/A   Clear
6:31 AM 50.0 °F 50.0 °F 100% 30.25 in 0.8 mi Calm Calm - N/A   Clear
6:36 AM 50.0 °F 50.0 °F 100% 30.24 in 1.0 mi Calm Calm - N/A   Clear
6:38 AM 50.0 °F 50.0 °F 100% 30.25 in 1.2 mi Calm Calm - N/A   Clear
6:39 AM 50.0 °F 50.0 °F 100% 30.25 in 1.5 mi Calm Calm - N/A   Clear
6:40 AM 50.0 °F 50.0 °F 100% 30.25 in 2.0 mi Calm Calm - N/A   Clear
6:42 AM 50.0 °F 50.0 °F 100% 30.24 in 3.0 mi Calm Calm - N/A   Clear
6:46 AM 50.0 °F 50.0 °F 100% 30.23 in 0.8 mi North 2.3 mph - N/A   Clear
6:55 AM 50.0 °F 50.0 °F 100% 30.24 in 0.2 mi Calm Calm - N/A Fog Fog
7:55 AM 51.8 °F 51.8 °F 100% 30.26 in 0.2 mi Calm Calm - N/A Fog Fog
8:55 AM 55.4 °F 55.4 °F 100% 30.26 in 0.2 mi Calm Calm - N/A Fog Fog
9:33 AM 57.2 °F 57.2 °F 100% 30.26 in 0.2 mi ESE 3.5 mph - N/A Fog Fog
9:43 AM 57.2 °F 57.2 °F 100% 30.26 in 0.2 mi East 3.5 mph - N/A Fog Fog
9:48 AM 57.2 °F 57.2 °F 100% 30.26 in 0.2 mi East 3.5 mph - N/A Fog Fog
9:49 AM 57.2 °F 57.2 °F 100% 30.26 in 0.2 mi ESE 3.5 mph - N/A Fog Fog
9:51 AM 59.0 °F 59.0 °F 100% 30.26 in 0.2 mi Calm Calm - N/A Fog Fog
9:52 AM 59.0 °F 59.0 °F 100% 30.26 in 0.5 mi Calm Calm - N/A Fog Fog
9:53 AM 59.0 °F 59.0 °F 100% 30.26 in 0.5 mi East 3.5 mph - N/A Fog Fog
9:55 AM 58.6 °F 58.6 °F 100% 30.26 in 0.5 mi ESE 3.5 mph - N/A Fog Fog
10:06 AM 59.0 °F 59.0 °F 100% 30.25 in 0.8 mi ESE 3.5 mph - N/A   Mist
10:08 AM 59.0 °F 59.0 °F 100% 30.25 in 1.0 mi ESE 3.5 mph - N/A   Mist
10:09 AM 59.0 °F 59.0 °F 100% 30.25 in 1.2 mi ESE 3.5 mph - N/A   Mostly Cloudy
10:10 AM 59.0 °F 59.0 °F 100% 30.25 in 1.5 mi ESE 3.5 mph - N/A   Mostly Cloudy
10:11 AM 60.8 °F 60.8 °F 100% 30.25 in 1.8 mi ESE 4.6 mph - N/A   Mostly Cloudy
10:12 AM 60.8 °F 60.8 °F 100% 30.25 in 2.0 mi SE 4.6 mph - N/A   Mostly Cloudy
10:15 AM 60.8 °F 60.8 °F 100% 30.25 in 3.0 mi SE 4.6 mph - N/A   Mostly Cloudy
10:17 AM 60.8 °F 60.8 °F 100% 30.25 in 4.0 mi SE 4.6 mph - N/A   Mostly Cloudy
10:30 AM 62.6 °F 62.6 °F 100% 30.25 in 9.0 mi Variable 4.6 mph - N/A   Mostly Cloudy
10:31 AM 62.6 °F 62.6 °F 100% 30.24 in 9.0 mi South 5.8 mph - N/A   Scattered Clouds
10:40 AM 64.4 °F 64.4 °F 100% 30.25 in 10.0 mi Variable 4.6 mph - N/A   Scattered Clouds
10:55 AM 65.8 °F 65.8 °F 100% 30.25 in 10.0 mi South 6.9 mph - N/A   Partly Cloudy
11:55 AM 70.2 °F 68.2 °F 93% 30.23 in 10.0 mi South 9.2 mph - N/A   Clear
12:55 PM 73.4 °F 62.6 °F 69% 30.19 in 10.0 mi South 10.4 mph - N/A   Partly Cloudy
1:55 PM 74.1 °F 63.9 °F 70% 30.16 in 10.0 mi SSE 8.1 mph - N/A   Partly Cloudy
2:55 PM 75.0 °F 63.5 °F 67% 30.15 in 10.0 mi South 12.7 mph - N/A   Partly Cloudy
3:55 PM 73.9 °F 63.5 °F 70% 30.14 in 10.0 mi SSE 10.4 mph - N/A   Mostly Cloudy
4:55 PM 70.9 °F 63.5 °F 77% 30.12 in 10.0 mi SSE 9.2 mph 16.1 mph N/A   Partly Cloudy
5:55 PM 66.7 °F 63.0 °F 88% 30.12 in 10.0 mi SE 8.1 mph - N/A   Clear
6:55 PM 64.8 °F 63.5 °F 96% 30.12 in 10.0 mi SSE 9.2 mph - N/A   Clear
7:55 PM 64.2 °F 63.1 °F 96% 30.13 in 10.0 mi SSE 5.8 mph - N/A   Clear
8:55 PM 64.4 °F 63.5 °F 97% 30.13 in 10.0 mi SSE 5.8 mph - N/A   Clear
9:55 PM 64.6 °F 63.9 °F 98% 30.12 in 10.0 mi Variable 5.8 mph - N/A   Clear
10:55 PM 64.8 °F 63.9 °F 97% 30.13 in 10.0 mi South 4.6 mph - N/A   Mostly Cloudy
11:55 PM 64.6 °F 63.7 °F 97% 30.11 in 10.0 mi SE 6.9 mph - N/A   Clear